| time (UTC) | temp F | wind direction | speed knots | gust knots | rain 1hr in | rain 24hr in | rain mn in | humidity % | barometer mb |
| 20260510130038 | 52 | 277 | 9.6 | 17.4 | 0.00 | 0.07 | 0.04 | 69 | 1009.0 |
| 20260510124539 | 51 | 214 | 10.4 | 17.4 | 0.00 | 0.07 | 0.04 | 71 | 1008.6 |
| 20260510123037 | 51 | 230 | 9.6 | 17.4 | 0.00 | 0.07 | 0.04 | 72 | 1008.5 |
| 20260510121537 | 51 | 252 | 7.8 | 15.6 | 0.00 | 0.07 | 0.04 | 73 | 1008.4 |
| 20260510120037 | 51 | 277 | 7.8 | 15.6 | 0.00 | 0.07 | 0.04 | 73 | 1008.2 |
| 20260510114547 | 50 | 244 | 10.4 | 17.4 | 0.00 | 0.07 | 0.04 | 74 | 1008.1 |
| 20260510113038 | 50 | 253 | 9.6 | 17.4 | 0.00 | 0.07 | 0.04 | 75 | 1007.8 |
| 20260510111539 | 51 | 262 | 7.8 | 16.5 | 0.00 | 0.07 | 0.04 | 77 | 1007.7 |
| 20260510110042 | 50 | 246 | 7.0 | 12.2 | 0.00 | 0.07 | 0.04 | 79 | 1007.4 |
| 20260510104537 | 50 | 219 | 6.1 | 13.0 | 0.00 | 0.07 | 0.04 | 80 | 1007.1 |
| 20260510103038 | 50 | 247 | 5.2 | 11.3 | 0.00 | 0.07 | 0.04 | 82 | 1006.8 |
| 20260510101538 | 50 | 215 | 4.3 | 10.4 | 0.00 | 0.07 | 0.04 | 84 | 1006.5 |
| 20260510100044 | 50 | 206 | 4.3 | 11.3 | 0.00 | 0.07 | 0.04 | 85 | 1006.0 |
| 20260510094546 | 50 | 235 | 5.2 | 12.2 | 0.00 | 0.07 | 0.04 | 86 | 1005.8 |
| 20260510093037 | 50 | 221 | 6.1 | 12.2 | 0.00 | 0.07 | 0.04 | 88 | 1005.8 |
| 20260510091541 | 50 | 222 | 5.2 | 9.6 | 0.00 | 0.07 | 0.04 | 89 | 1005.8 |
| 20260510090036 | 50 | 238 | 5.2 | 10.4 | 0.00 | 0.07 | 0.04 | 89 | 1005.7 |
| 20260510084539 | 50 | 228 | 5.2 | 13.9 | 0.00 | 0.07 | 0.04 | 90 | 1005.5 |
| 20260510083051 | 50 | 229 | 4.3 | 8.7 | 0.00 | 0.07 | 0.04 | 90 | 1005.3 |
| 20260510081541 | 50 | 215 | 4.3 | 9.6 | 0.00 | 0.07 | 0.04 | 90 | 1005.3 |
| 20260510080038 | 50 | 209 | 4.3 | 9.6 | 0.00 | 0.07 | 0.04 | 90 | 1004.8 |
| 20260510074537 | 51 | 227 | 5.2 | 11.3 | 0.00 | 0.07 | 0.04 | 90 | 1004.9 |
| 20260510073043 | 51 | 244 | 5.2 | 10.4 | 0.00 | 0.07 | 0.04 | 91 | 1004.9 |
| 20260510071540 | 51 | 236 | 6.1 | 11.3 | 0.00 | 0.07 | 0.04 | 90 | 1004.9 |
| 20260510070043 | 51 | 226 | 6.1 | 13.0 | 0.00 | 0.07 | 0.04 | 90 | 1004.8 |
| 20260510064540 | 51 | 232 | 5.2 | 12.2 | 0.00 | 0.07 | 0.04 | 90 | 1004.6 |
| 20260510063038 | 52 | 230 | 7.8 | 14.8 | 0.00 | 0.07 | 0.04 | 90 | 1004.6 |
| 20260510061537 | 52 | 200 | 6.1 | 11.3 | 0.00 | 0.07 | 0.04 | 91 | 1004.7 |
| 20260510060042 | 52 | 205 | 6.1 | 12.2 | 0.00 | 0.07 | 0.04 | 91 | 1004.5 |
| 20260510054541 | 52 | 219 | 5.2 | 11.3 | 0.01 | 0.07 | 0.04 | 91 | 1004.4 |
| 20260510053038 | 51 | 202 | 2.6 | 9.6 | 0.01 | 0.07 | 0.04 | 91 | 1004.2 |
| 20260510051539 | 51 | 190 | 2.6 | 7.0 | 0.02 | 0.07 | 0.04 | 91 | 1004.0 |
| 20260510050039 | 51 | 195 | 3.5 | 10.4 | 0.04 | 0.07 | 0.04 | 91 | 1003.9 |
| 20260510044536 | 51 | 169 | 2.6 | 7.8 | 0.06 | 0.06 | 0.03 | 90 | 1004.2 |
| 20260510043035 | 51 | 147 | 3.5 | 7.8 | 0.06 | 0.06 | 0.03 | 89 | 1004.2 |
| 20260510041543 | 51 | 162 | 2.6 | 11.3 | 0.05 | 0.05 | 0.02 | 87 | 1004.1 |
| 20260510040039 | 52 | 155 | 0.9 | 4.3 | 0.03 | 0.03 | 0.00 | 83 | 1004.3 |
| 20260510034538 | 53 | 151 | 3.5 | 8.7 | 0.00 | 0.00 | 0.00 | 79 | 1004.0 |
| 20260510033038 | 54 | 141 | 6.1 | 13.0 | 0.00 | 0.00 | 0.00 | 76 | 1003.7 |
| 20260510031537 | 54 | 119 | 6.1 | 10.4 | 0.00 | 0.00 | 0.00 | 75 | 1003.8 |
| 20260510030049 | 54 | 119 | 3.5 | 9.6 | 0.00 | 0.00 | 0.00 | 74 | 1003.9 |
| 20260510024535 | 54 | 145 | 6.1 | 12.2 | 0.00 | 0.00 | 0.00 | 74 | 1003.8 |
| 20260510023037 | 54 | 136 | 6.1 | 12.2 | 0.00 | 0.00 | 0.00 | 74 | 1004.0 |
| 20260510021538 | 55 | 130 | 6.1 | 9.6 | 0.00 | 0.00 | 0.00 | 73 | 1004.3 |
| 20260510020037 | 55 | 136 | 7.0 | 11.3 | 0.00 | 0.00 | 0.00 | 72 | 1004.2 |
| 20260510014536 | 55 | 115 | 5.2 | 9.6 | 0.00 | 0.00 | 0.00 | 71 | 1004.4 |
| 20260510013036 | 56 | 136 | 5.2 | 11.3 | 0.00 | 0.00 | 0.00 | 69 | 1004.4 |
| 20260510011546 | 57 | 148 | 3.5 | 9.6 | 0.00 | 0.00 | 0.00 | 68 | 1004.4 |
| 20260510010038 | 57 | 128 | 1.7 | 10.4 | 0.00 | 0.00 | 0.00 | 67 | 1004.3 |
| 20260510004537 | 58 | 149 | 1.7 | 8.7 | 0.00 | 0.00 | 0.00 | 65 | 1004.2 |
| 20260510003041 | 59 | 184 | 3.5 | 7.8 | 0.00 | 0.00 | 0.00 | 64 | 1004.4 |
| 20260510001537 | 58 | 194 | 3.5 | 10.4 | 0.00 | 0.00 | 0.00 | 63 | 1004.2 |
| 20260510000037 | 58 | 115 | 7.0 | 13.0 | 0.00 | 0.00 | 0.00 | 63 | 1003.9 |
| 20260509234542 | 59 | 128 | 8.7 | 14.8 | 0.00 | 0.00 | 0.00 | 62 | 1003.8 |
| 20260509233038 | 59 | 125 | 7.0 | 13.9 | 0.00 | 0.00 | 0.00 | 61 | 1003.7 |
| 20260509231542 | 60 | 109 | 10.4 | 15.6 | 0.00 | 0.00 | 0.00 | 58 | 1003.5 |
| 20260509230037 | 62 | 116 | 7.0 | 12.2 | 0.00 | 0.00 | 0.00 | 51 | 1003.4 |
| 20260509224537 | 64 | 178 | 0.9 | 7.8 | 0.00 | 0.00 | 0.00 | 43 | 1003.5 |
| 20260509223036 | 65 | 204 | 2.6 | 10.4 | 0.00 | 0.00 | 0.00 | 41 | 1003.5 |
| 20260509221535 | 65 | 148 | 2.6 | 10.4 | 0.00 | 0.00 | 0.00 | 40 | 1003.7 |
| 20260509220040 | 65 | 126 | 3.5 | 9.6 | 0.00 | 0.00 | 0.00 | 40 | 1003.8 |
| 20260509214537 | 66 | 144 | 2.6 | 10.4 | 0.00 | 0.00 | 0.00 | 34 | 1003.8 |
| 20260509213038 | 65 | 96 | 10.4 | 20.9 | 0.00 | 0.00 | 0.00 | 39 | 1003.7 |
| 20260509211537 | 64 | 80 | 7.0 | 19.1 | 0.00 | 0.00 | 0.00 | 41 | 1003.9 |
| 20260509210044 | 65 | 100 | 7.8 | 14.8 | 0.00 | 0.00 | 0.00 | 36 | 1003.7 |
| 20260509204543 | 65 | 100 | 10.4 | 18.2 | 0.00 | 0.00 | 0.00 | 33 | 1003.9 |
| 20260509203041 | 65 | 119 | 8.7 | 18.2 | 0.00 | 0.00 | 0.00 | 35 | 1004.3 |
| 20260509201537 | 65 | 86 | 5.2 | 15.6 | 0.00 | 0.00 | 0.00 | 30 | 1004.3 |
| 20260509200037 | 65 | 115 | 7.0 | 21.7 | 0.00 | 0.00 | 0.00 | 28 | 1004.5 |
| 20260509194537 | 66 | 117 | 7.8 | 13.0 | 0.00 | 0.00 | 0.00 | 27 | 1004.8 |
| 20260509193041 | 65 | 120 | 9.6 | 16.5 | 0.00 | 0.00 | 0.00 | 28 | 1005.1 |
| 20260509191541 | 65 | 117 | 4.3 | 11.3 | 0.00 | 0.00 | 0.00 | 29 | 1005.3 |
| 20260509190038 | 65 | 112 | 4.3 | 13.0 | 0.00 | 0.00 | 0.00 | 28 | 1005.6 |
| 20260509184550 | 64 | 153 | 7.8 | 13.9 | 0.00 | 0.00 | 0.00 | 30 | 1005.9 |
| 20260509183038 | 65 | 125 | 7.0 | 13.9 | 0.00 | 0.00 | 0.00 | 29 | 1006.2 |
| 20260509181550 | 64 | 109 | 8.7 | 16.5 | 0.00 | 0.00 | 0.00 | 29 | 1006.1 |
| 20260509180045 | 63 | 201 | 6.1 | 13.0 | 0.00 | 0.00 | 0.00 | 29 | 1006.3 |
| 20260509174539 | 64 | 140 | 6.1 | 11.3 | 0.00 | 0.00 | 0.00 | 28 | 1006.5 |
| 20260509173042 | 64 | 178 | 3.5 | 8.7 | 0.00 | 0.00 | 0.00 | 30 | 1006.7 |
| 20260509171538 | 63 | 146 | 7.0 | 13.0 | 0.00 | 0.00 | 0.00 | 29 | 1006.9 |
| 20260509170046 | 63 | 175 | 2.6 | 8.7 | 0.00 | 0.00 | 0.00 | 32 | 1007.2 |
| 20260509164541 | 63 | 123 | 5.2 | 14.8 | 0.00 | 0.00 | 0.00 | 32 | 1007.5 |
| 20260509163036 | 62 | 115 | 8.7 | 13.0 | 0.00 | 0.00 | 0.00 | 32 | 1007.7 |
| 20260509161538 | 62 | 209 | 5.2 | 12.2 | 0.00 | 0.00 | 0.00 | 32 | 1007.9 |
| 20260509160039 | 62 | 151 | 2.6 | 12.2 | 0.00 | 0.00 | 0.00 | 34 | 1008.3 |
| 20260509154543 | 61 | 148 | 6.1 | 15.6 | 0.00 | 0.00 | 0.00 | 36 | 1008.6 |
| 20260509153045 | 61 | 212 | 3.5 | 7.8 | 0.00 | 0.00 | 0.00 | 37 | 1008.8 |
| 20260509151537 | 61 | 134 | 1.7 | 12.2 | 0.00 | 0.00 | 0.00 | 37 | 1009.0 |
| 20260509150036 | 59 | 134 | 4.3 | 12.2 | 0.00 | 0.00 | 0.00 | 36 | 1009.3 |
| 20260509144541 | 59 | 136 | 7.0 | 12.2 | 0.00 | 0.00 | 0.00 | 37 | 1009.4 |
| 20260509143040 | 58 | 206 | 3.5 | 10.4 | 0.00 | 0.00 | 0.00 | 41 | 1009.5 |
| 20260509141538 | 57 | 191 | 3.5 | 7.8 | 0.00 | 0.00 | 0.00 | 41 | 1009.6 |
| 20260509140044 | 57 | 145 | 5.2 | 10.4 | 0.00 | 0.00 | 0.00 | 46 | 1009.6 |
| 20260509134539 | 55 | 127 | 2.6 | 7.0 | 0.00 | 0.00 | 0.00 | 47 | 1009.6 |
| 20260509133037 | 54 | 137 | 2.6 | 7.0 | 0.00 | 0.00 | 0.00 | 49 | 1009.8 |
| 20260509131540 | 53 | 138 | 4.3 | 9.6 | 0.00 | 0.00 | 0.00 | 52 | 1009.8 |